RYR3JH LEVC-GCTS

Flight info

Callsign RYR3JH
Flight time N/A
Altitude 35000
Route ASTRO M985 PIMOS N869 GALTO UN869 RUSIK
Aircraft B738/M-SDE2E3FGHIRWXY/LB1

Departure

Time 2026-04-29 10:40
Airport Valencia Airport (LEVC)

Arrival

Time N/A
Airport Tenerife Sur Airport (GCTS)
Time Latitude Longitude Altitude Speed Heading
2026-04-29 10:02 39.49171 -0.47635 208 ft 0 kts 66°
2026-04-29 10:29 39.49169 -0.47640 208 ft 4 kts 69°
2026-04-29 10:30 39.49164 -0.47673 217 ft 4 kts 102°
2026-04-29 10:30 39.49175 -0.47698 214 ft 4 kts 162°
2026-04-29 10:30 39.49190 -0.47699 216 ft 0 kts 206°
2026-04-29 10:33 39.49189 -0.47699 216 ft 0 kts 206°
2026-04-29 10:33 39.49178 -0.47706 215 ft 3 kts 205°
2026-04-29 10:33 39.49152 -0.47722 209 ft 5 kts 206°
2026-04-29 10:34 39.49108 -0.47750 215 ft 9 kts 206°
2026-04-29 10:34 39.49041 -0.47806 212 ft 13 kts 237°
2026-04-29 10:34 39.49041 -0.47921 211 ft 13 kts 296°
2026-04-29 10:34 39.49080 -0.48026 213 ft 13 kts 296°
2026-04-29 10:35 39.49119 -0.48127 210 ft 12 kts 296°
2026-04-29 10:35 39.49157 -0.48227 210 ft 12 kts 297°
2026-04-29 10:35 39.49194 -0.48323 214 ft 12 kts 297°
2026-04-29 10:35 39.49229 -0.48418 212 ft 12 kts 293°
2026-04-29 10:36 39.49262 -0.48510 211 ft 11 kts 300°
2026-04-29 10:36 39.49299 -0.48601 208 ft 12 kts 296°
2026-04-29 10:36 39.49340 -0.48708 211 ft 15 kts 296°
2026-04-29 10:36 39.49388 -0.48835 211 ft 17 kts 296°
2026-04-29 10:37 39.49443 -0.48979 212 ft 19 kts 296°
2026-04-29 10:37 39.49504 -0.49139 210 ft 21 kts 296°
2026-04-29 10:37 39.49570 -0.49312 214 ft 22 kts 296°
2026-04-29 10:37 39.49640 -0.49496 214 ft 23 kts 296°
2026-04-29 10:38 39.49714 -0.49689 213 ft 25 kts 296°
2026-04-29 10:38 39.49785 -0.49877 216 ft 14 kts 296°
2026-04-29 10:38 39.49762 -0.49977 209 ft 14 kts 207°
2026-04-29 10:38 39.49724 -0.49999 212 ft 5 kts 205°
2026-04-29 10:39 39.49687 -0.50022 219 ft 8 kts 205°
2026-04-29 10:39 39.49637 -0.50012 216 ft 9 kts 128°
2026-04-29 10:39 39.49601 -0.49919 214 ft 21 kts 116°
2026-04-29 10:39 39.49432 -0.49471 211 ft 90 kts 116°
2026-04-29 10:40 39.49066 -0.48495 210 ft 149 kts 115°
2026-04-29 10:40 39.48550 -0.47136 476 ft 178 kts 117°
2026-04-29 10:40 39.47964 -0.45769 1410 ft 173 kts 117°
2026-04-29 10:40 39.47350 -0.44398 2039 ft 185 kts 122°
2026-04-29 10:41 39.46429 -0.43026 2337 ft 216 kts 144°
2026-04-29 10:41 39.44961 -0.42258 2694 ft 236 kts 153°
2026-04-29 10:41 39.43798 -0.40806 3286 ft 240 kts 116°
2026-04-29 10:41 39.43132 -0.38731 3698 ft 257 kts 114°
2026-04-29 10:42 39.42298 -0.36667 4521 ft 258 kts 120°
2026-04-29 10:42 39.41366 -0.34701 5329 ft 261 kts 123°
2026-04-29 10:42 39.40360 -0.32713 5881 ft 265 kts 124°
2026-04-29 10:42 39.39181 -0.30886 6522 ft 269 kts 147°
2026-04-29 10:43 39.37420 -0.30154 7208 ft 271 kts 182°
2026-04-29 10:43 39.35646 -0.30872 7985 ft 273 kts 216°
2026-04-29 10:43 39.34319 -0.32640 8795 ft 276 kts 235°
2026-04-29 10:43 39.33367 -0.34808 9598 ft 278 kts 241°
2026-04-29 10:44 39.32451 -0.37023 10286 ft 284 kts 241°
2026-04-29 10:44 39.31672 -0.39151 10476 ft 304 kts 246°
2026-04-29 10:44 39.30942 -0.41828 10662 ft 328 kts 252°
2026-04-29 10:44 39.30438 -0.44792 10968 ft 346 kts 260°
2026-04-29 10:45 39.30227 -0.47922 11533 ft 354 kts 267°
2026-04-29 10:45 39.30338 -0.51111 12233 ft 358 kts 274°
2026-04-29 10:45 39.30786 -0.54289 12942 ft 362 kts 282°
2026-04-29 10:45 39.31579 -0.57402 13605 ft 368 kts 290°
2026-04-29 10:46 39.32722 -0.60392 14226 ft 375 kts 298°
2026-04-29 10:46 39.34199 -0.63190 14856 ft 380 kts 306°
2026-04-29 10:46 39.35873 -0.65846 15467 ft 381 kts 300°
2026-04-29 10:46 39.36800 -0.68997 16039 ft 377 kts 274°
2026-04-29 10:47 39.36729 -0.71541 16497 ft 374 kts 255°
2026-04-29 10:47 39.35666 -0.74566 17078 ft 373 kts 231°
2026-04-29 10:47 39.33694 -0.76739 17613 ft 377 kts 210°
2026-04-29 10:47 39.31429 -0.78437 18224 ft 379 kts 216°
2026-04-29 10:48 39.29470 -0.80737 18689 ft 383 kts 228°
2026-04-29 10:48 39.27791 -0.83423 19209 ft 386 kts 232°
2026-04-29 10:48 39.26215 -0.86193 19700 ft 389 kts 233°
2026-04-29 10:48 39.24601 -0.89013 20176 ft 392 kts 232°
2026-04-29 10:49 39.22954 -0.91829 20661 ft 395 kts 232°
2026-04-29 10:49 39.21283 -0.94654 21136 ft 398 kts 231°
2026-04-29 10:49 39.19593 -0.97497 21587 ft 400 kts 231°
2026-04-29 10:49 39.17891 -1.00355 22050 ft 403 kts 231°
2026-04-29 10:50 39.16153 -1.03272 22498 ft 406 kts 231°
2026-04-29 10:50 39.14450 -1.06131 22932 ft 409 kts 231°
2026-04-29 10:50 39.12711 -1.09047 23366 ft 412 kts 231°
2026-04-29 10:50 39.10958 -1.11986 23744 ft 415 kts 231°
2026-04-29 10:51 39.09199 -1.14932 24157 ft 416 kts 231°
2026-04-29 10:51 39.07436 -1.17883 24602 ft 416 kts 231°
2026-04-29 10:51 39.05674 -1.20831 24986 ft 417 kts 231°
2026-04-29 10:51 39.03898 -1.23797 25308 ft 420 kts 231°
2026-04-29 10:52 39.02535 -1.26071 25547 ft 422 kts 231°
2026-04-29 10:52 39.00737 -1.29069 25894 ft 424 kts 231°
2026-04-29 10:52 38.98933 -1.32079 26236 ft 426 kts 231°
2026-04-29 10:52 38.97120 -1.35103 26570 ft 429 kts 231°
2026-04-29 10:53 38.95297 -1.38142 26896 ft 431 kts 231°
2026-04-29 10:53 38.93459 -1.41202 27212 ft 433 kts 231°
2026-04-29 10:53 38.91615 -1.44270 27524 ft 435 kts 231°
2026-04-29 10:53 38.89761 -1.47352 27824 ft 437 kts 231°
2026-04-29 10:54 38.87899 -1.50444 28116 ft 439 kts 231°
2026-04-29 10:54 38.86026 -1.53551 28390 ft 442 kts 231°
2026-04-29 10:54 38.84144 -1.56672 28706 ft 443 kts 231°
2026-04-29 10:54 38.82263 -1.59787 29145 ft 441 kts 231°
2026-04-29 10:55 38.80390 -1.62886 29614 ft 439 kts 230°
2026-04-29 10:55 38.78525 -1.65970 30053 ft 437 kts 230°
2026-04-29 10:55 38.76660 -1.69050 30363 ft 437 kts 230°
2026-04-29 10:55 38.74794 -1.72129 30674 ft 437 kts 231°
2026-04-29 10:56 38.72934 -1.75195 31006 ft 436 kts 231°
2026-04-29 10:56 38.71075 -1.78255 31343 ft 435 kts 231°
2026-04-29 10:56 38.69242 -1.81265 31655 ft 434 kts 231°
2026-04-29 10:56 38.67388 -1.84305 31961 ft 433 kts 231°
2026-04-29 10:57 38.65958 -1.86650 32205 ft 433 kts 231°
2026-04-29 10:57 38.64131 -1.89643 32506 ft 432 kts 231°
2026-04-29 10:57 38.62286 -1.92664 32823 ft 431 kts 233°
2026-04-29 10:57 38.60454 -1.95660 33302 ft 426 kts 233°
2026-04-29 10:58 38.58632 -1.98640 33651 ft 424 kts 233°
2026-04-29 10:58 38.56815 -2.01608 33901 ft 424 kts 234°
2026-04-29 10:58 38.54995 -2.04579 34137 ft 424 kts 234°
2026-04-29 10:58 38.53180 -2.07538 34408 ft 422 kts 234°
2026-04-29 10:59 38.51371 -2.10483 34674 ft 421 kts 234°
2026-04-29 10:59 38.49566 -2.13422 34901 ft 421 kts 234°
2026-04-29 10:59 38.47755 -2.16372 34929 ft 424 kts 234°
2026-04-29 11:00 38.44117 -2.22291 34940 ft 422 kts 234°
2026-04-29 11:00 38.40511 -2.28148 34935 ft 418 kts 234°
2026-04-29 11:01 38.36929 -2.33954 34948 ft 415 kts 234°
2026-04-29 11:01 38.33145 -2.39472 34938 ft 414 kts 229°
2026-04-29 11:02 38.29627 -2.44115 34936 ft 413 kts 229°
2026-04-29 11:02 38.25649 -2.49360 34932 ft 411 kts 229°
2026-04-29 11:03 38.21697 -2.54625 34932 ft 411 kts 229°
2026-04-29 11:03 38.17745 -2.59907 34940 ft 413 kts 229°
2026-04-29 11:04 38.13807 -2.65167 34942 ft 415 kts 230°
2026-04-29 11:04 38.09820 -2.70481 34948 ft 416 kts 230°
2026-04-29 11:05 38.05823 -2.75800 34921 ft 417 kts 230°
2026-04-29 11:05 38.01818 -2.81121 34930 ft 417 kts 230°
2026-04-29 11:06 37.97815 -2.86432 34930 ft 416 kts 230°
2026-04-29 11:06 37.93814 -2.91721 34931 ft 415 kts 230°
2026-04-29 11:07 37.90291 -2.96355 34916 ft 415 kts 230°
2026-04-29 11:07 37.86292 -3.01607 34927 ft 414 kts 230°
2026-04-29 11:08 37.82302 -3.06843 34908 ft 413 kts 230°
2026-04-29 11:08 37.78321 -3.12061 34911 ft 412 kts 230°
2026-04-29 11:09 37.74343 -3.17264 34915 ft 411 kts 230°
2026-04-29 11:09 37.70384 -3.22445 34905 ft 409 kts 230°
2026-04-29 11:10 37.66469 -3.27575 34906 ft 408 kts 230°
2026-04-29 11:10 37.62539 -3.32720 34918 ft 407 kts 230°
2026-04-29 11:11 37.58606 -3.37860 34915 ft 407 kts 230°
2026-04-29 11:11 37.54667 -3.42999 34918 ft 408 kts 230°
2026-04-29 11:12 37.51186 -3.47534 34926 ft 409 kts 230°
2026-04-29 11:12 37.47224 -3.52686 34920 ft 410 kts 230°
2026-04-29 11:13 37.43276 -3.57814 34918 ft 411 kts 230°
2026-04-29 11:13 37.39291 -3.62978 34913 ft 411 kts 230°
2026-04-29 11:14 37.35304 -3.68131 34910 ft 412 kts 230°
2026-04-29 11:14 37.31302 -3.73290 34915 ft 412 kts 230°
2026-04-29 11:15 37.27300 -3.78446 34918 ft 412 kts 230°
2026-04-29 11:15 37.23969 -3.82729 34951 ft 412 kts 229°
2026-04-29 11:16 37.19976 -3.87858 34937 ft 410 kts 229°
2026-04-29 11:16 37.15996 -3.92962 34910 ft 407 kts 229°
2026-04-29 11:17 37.12515 -3.97419 34921 ft 404 kts 229°
2026-04-29 11:17 37.08592 -4.02435 34925 ft 402 kts 229°
2026-04-29 11:18 37.04711 -4.07391 34921 ft 401 kts 229°
2026-04-29 11:18 37.00818 -4.12354 34927 ft 398 kts 229°
2026-04-29 11:19 36.96934 -4.17298 34929 ft 399 kts 229°
2026-04-29 11:19 36.93036 -4.22254 34937 ft 401 kts 229°
2026-04-29 11:20 36.89114 -4.27231 34925 ft 403 kts 229°
2026-04-29 11:20 36.85175 -4.32222 34939 ft 404 kts 229°
2026-04-29 11:21 36.81144 -4.37137 34930 ft 409 kts 223°
2026-04-29 11:21 36.76356 -4.41093 34941 ft 415 kts 217°
2026-04-29 11:22 36.72032 -4.44473 34934 ft 416 kts 217°
2026-04-29 11:22 36.67132 -4.48327 34946 ft 417 kts 217°
2026-04-29 11:23 36.62241 -4.52191 34931 ft 416 kts 217°
2026-04-29 11:23 36.57365 -4.56046 34937 ft 415 kts 217°
2026-04-29 11:24 36.52526 -4.59866 34937 ft 414 kts 217°
2026-04-29 11:24 36.47675 -4.63690 34927 ft 412 kts 217°
2026-04-29 11:25 36.42838 -4.67496 34929 ft 411 kts 217°
2026-04-29 11:25 36.38018 -4.71283 34927 ft 409 kts 217°
2026-04-29 11:26 36.30822 -4.76928 34937 ft 407 kts 217°
2026-04-29 11:26 36.26037 -4.80675 34936 ft 406 kts 217°
2026-04-29 11:27 36.21828 -4.83967 34941 ft 406 kts 217°
2026-04-29 11:27 36.17039 -4.87708 34938 ft 407 kts 217°
2026-04-29 11:28 36.12258 -4.91458 34944 ft 407 kts 218°
2026-04-29 11:28 36.07495 -4.95248 34943 ft 407 kts 218°
2026-04-29 11:29 36.02724 -4.99041 34941 ft 408 kts 218°
2026-04-29 11:29 35.97941 -5.02833 34941 ft 409 kts 218°
2026-04-29 11:30 35.93150 -5.06622 34943 ft 409 kts 218°
2026-04-29 11:30 35.88349 -5.10416 34941 ft 410 kts 218°
2026-04-29 11:31 35.83542 -5.14211 34932 ft 410 kts 219°
2026-04-29 11:31 35.78978 -5.18281 34935 ft 407 kts 222°
2026-04-29 11:32 35.75012 -5.21976 34940 ft 406 kts 222°
2026-04-29 11:32 35.70507 -5.26164 34933 ft 406 kts 222°
2026-04-29 11:33 35.65999 -5.30326 34947 ft 406 kts 222°
2026-04-29 11:33 35.61479 -5.34480 34932 ft 405 kts 221°
2026-04-29 11:34 35.56964 -5.38619 34946 ft 405 kts 221°
2026-04-29 11:34 35.52449 -5.42753 34938 ft 404 kts 221°
2026-04-29 11:35 35.47948 -5.46867 34943 ft 404 kts 221°
2026-04-29 11:35 35.43434 -5.50987 34939 ft 404 kts 221°
2026-04-29 11:36 35.38928 -5.55094 34931 ft 403 kts 221°
2026-04-29 11:36 35.34428 -5.59190 34929 ft 403 kts 221°
2026-04-29 11:37 35.30453 -5.62804 34936 ft 403 kts 221°
2026-04-29 11:37 35.25952 -5.66890 34943 ft 403 kts 221°
2026-04-29 11:38 35.21444 -5.70978 34947 ft 404 kts 221°
2026-04-29 11:38 35.16927 -5.75067 34952 ft 405 kts 221°
2026-04-29 11:39 35.12429 -5.79133 34947 ft 405 kts 221°
2026-04-29 11:39 35.07900 -5.83221 34935 ft 404 kts 221°
2026-04-29 11:40 35.03376 -5.87299 34941 ft 405 kts 221°
2026-04-29 11:40 34.98844 -5.91378 34944 ft 405 kts 221°
2026-04-29 11:41 34.94311 -5.95453 34939 ft 405 kts 221°
2026-04-29 11:41 34.89769 -5.99530 34941 ft 405 kts 221°
2026-04-29 11:42 34.85772 -6.03114 34940 ft 406 kts 220°
2026-04-29 11:42 34.81221 -6.07188 34926 ft 406 kts 220°
2026-04-29 11:43 34.76668 -6.11258 34941 ft 406 kts 220°
2026-04-29 11:43 34.72111 -6.15327 34935 ft 406 kts 220°
2026-04-29 11:44 34.67550 -6.19392 34941 ft 407 kts 220°
2026-04-29 11:44 34.63019 -6.23426 34941 ft 407 kts 220°
2026-04-29 11:45 34.58449 -6.27489 34937 ft 408 kts 220°
2026-04-29 11:45 34.53868 -6.31557 34928 ft 408 kts 220°
2026-04-29 11:46 34.49283 -6.35621 34936 ft 408 kts 220°
2026-04-29 11:46 34.44700 -6.39679 34935 ft 408 kts 220°
2026-04-29 11:47 34.40659 -6.43252 34935 ft 408 kts 220°
2026-04-29 11:47 34.36075 -6.47299 34951 ft 408 kts 220°
2026-04-29 11:48 34.31489 -6.51343 34931 ft 408 kts 220°
2026-04-29 11:48 34.26910 -6.55376 34928 ft 407 kts 219°
2026-04-29 11:49 34.22333 -6.59401 34938 ft 406 kts 219°
2026-04-29 11:49 34.17759 -6.63419 34939 ft 407 kts 219°
2026-04-29 11:50 34.13212 -6.67407 34941 ft 407 kts 219°
2026-04-29 11:50 34.08634 -6.71419 34940 ft 407 kts 219°
2026-04-29 11:51 34.04037 -6.75426 34938 ft 408 kts 219°
2026-04-29 11:51 33.99357 -6.79303 34935 ft 408 kts 218°
2026-04-29 11:52 33.95209 -6.82684 34943 ft 408 kts 218°
2026-04-29 11:52 33.90504 -6.86527 34939 ft 409 kts 218°
2026-04-29 11:53 33.85804 -6.90377 34934 ft 409 kts 218°
2026-04-29 11:53 33.81106 -6.94226 34938 ft 409 kts 218°
2026-04-29 11:54 33.76403 -6.98076 34932 ft 409 kts 218°
2026-04-29 11:54 33.71708 -7.01914 34951 ft 408 kts 217°
2026-04-29 11:55 33.67016 -7.05744 34960 ft 408 kts 217°
2026-04-29 11:55 33.62324 -7.09568 34964 ft 408 kts 217°
2026-04-29 11:56 33.57627 -7.13392 34969 ft 408 kts 217°
2026-04-29 11:56 33.52929 -7.17211 34961 ft 408 kts 217°
2026-04-29 11:57 33.48780 -7.20581 34960 ft 408 kts 217°
2026-04-29 11:57 33.44075 -7.24396 34951 ft 408 kts 217°
2026-04-29 11:58 33.39399 -7.28183 34948 ft 408 kts 217°
2026-04-29 11:58 33.34693 -7.31990 34953 ft 409 kts 217°
2026-04-29 11:59 33.29981 -7.35795 34950 ft 409 kts 217°
2026-04-29 11:59 33.25265 -7.39601 34952 ft 409 kts 217°
2026-04-29 12:00 33.20549 -7.43400 34953 ft 409 kts 217°
2026-04-29 12:00 33.15835 -7.47195 34959 ft 409 kts 217°
2026-04-29 12:01 33.11109 -7.50972 34957 ft 409 kts 215°
2026-04-29 12:01 33.06218 -7.54469 34957 ft 410 kts 213°
2026-04-29 12:02 33.01868 -7.57473 34955 ft 410 kts 213°
2026-04-29 12:02 32.96978 -7.60881 34955 ft 410 kts 213°
2026-04-29 12:03 32.92065 -7.64327 34940 ft 410 kts 213°
2026-04-29 12:03 32.87154 -7.67770 34951 ft 409 kts 213°
2026-04-29 12:04 32.82244 -7.71207 34954 ft 409 kts 213°
2026-04-29 12:04 32.77338 -7.74640 34955 ft 409 kts 213°
2026-04-29 12:05 32.72431 -7.78071 34957 ft 409 kts 213°
2026-04-29 12:05 32.67524 -7.81498 34952 ft 409 kts 213°
2026-04-29 12:06 32.62614 -7.84922 34937 ft 409 kts 212°
2026-04-29 12:06 32.57735 -7.88320 34950 ft 409 kts 212°
2026-04-29 12:07 32.53407 -7.91332 34951 ft 409 kts 212°
2026-04-29 12:07 32.48499 -7.94742 34952 ft 409 kts 212°
2026-04-29 12:08 32.43584 -7.98153 34947 ft 409 kts 212°
2026-04-29 12:08 32.38669 -8.01560 34952 ft 410 kts 212°
2026-04-29 12:09 32.33752 -8.04964 34939 ft 410 kts 212°
2026-04-29 12:09 32.28832 -8.08366 34951 ft 410 kts 212°
2026-04-29 12:10 32.23910 -8.11765 34951 ft 410 kts 212°
2026-04-29 12:10 32.19814 -8.14591 34951 ft 410 kts 212°
2026-04-29 12:11 32.14883 -8.17989 34951 ft 411 kts 212°
2026-04-29 12:11 32.09939 -8.21373 34948 ft 411 kts 212°
2026-04-29 12:12 32.05586 -8.24296 34939 ft 411 kts 211°
2026-04-29 12:12 32.00615 -8.27620 34949 ft 411 kts 211°
2026-04-29 12:13 31.95640 -8.30949 34948 ft 411 kts 211°
2026-04-29 12:13 31.90663 -8.34280 34950 ft 412 kts 211°
2026-04-29 12:14 31.85676 -8.37616 34954 ft 412 kts 211°
2026-04-29 12:14 31.80685 -8.40950 34945 ft 413 kts 211°
2026-04-29 12:15 31.75687 -8.44286 34943 ft 413 kts 211°
2026-04-29 12:15 31.70688 -8.47617 34944 ft 414 kts 211°
2026-04-29 12:16 31.65681 -8.50948 34950 ft 413 kts 211°
2026-04-29 12:16 31.60680 -8.54273 34946 ft 413 kts 211°
2026-04-29 12:17 31.56291 -8.57187 34955 ft 413 kts 211°
2026-04-29 12:17 31.51293 -8.60501 34953 ft 412 kts 211°
2026-04-29 12:18 31.46302 -8.63807 34949 ft 412 kts 211°
2026-04-29 12:18 31.41312 -8.67108 34960 ft 412 kts 211°
2026-04-29 12:19 31.36326 -8.70402 34955 ft 412 kts 211°
2026-04-29 12:19 31.31338 -8.73694 34952 ft 412 kts 211°
2026-04-29 12:20 31.26358 -8.76976 34959 ft 412 kts 211°
2026-04-29 12:20 31.21356 -8.80269 34947 ft 413 kts 211°
2026-04-29 12:21 31.16351 -8.83560 34957 ft 413 kts 211°
2026-04-29 12:21 31.11366 -8.86834 34959 ft 414 kts 211°
2026-04-29 12:22 31.06984 -8.89707 34946 ft 415 kts 211°
2026-04-29 12:22 31.01949 -8.93006 34963 ft 415 kts 211°
2026-04-29 12:23 30.96906 -8.96306 34949 ft 416 kts 211°
2026-04-29 12:23 30.91852 -8.99610 34946 ft 416 kts 211°
2026-04-29 12:24 30.86797 -9.02909 34928 ft 416 kts 211°
2026-04-29 12:24 30.81745 -9.06203 34941 ft 416 kts 211°
2026-04-29 12:25 30.76696 -9.09491 34942 ft 416 kts 211°
2026-04-29 12:26 30.69126 -9.14413 34928 ft 415 kts 211°
2026-04-29 12:26 30.64119 -9.17664 34927 ft 415 kts 211°
2026-04-29 12:27 30.59674 -9.20546 34921 ft 415 kts 212°
2026-04-29 12:27 30.54636 -9.23810 34922 ft 415 kts 212°
2026-04-29 12:28 30.49599 -9.27069 34928 ft 414 kts 212°
2026-04-29 12:28 30.44571 -9.30319 34934 ft 414 kts 212°
2026-04-29 12:29 30.39545 -9.33565 34930 ft 413 kts 212°
2026-04-29 12:29 30.34611 -9.36948 34916 ft 410 kts 221°
2026-04-29 12:30 30.30858 -9.41815 34907 ft 405 kts 239°
2026-04-29 12:30 30.28403 -9.47672 34919 ft 405 kts 246°
2026-04-29 12:31 30.26099 -9.53626 34913 ft 406 kts 246°
2026-04-29 12:31 30.23774 -9.59580 34921 ft 407 kts 246°
2026-04-29 12:32 30.21704 -9.64827 34945 ft 407 kts 245°
2026-04-29 12:32 30.19343 -9.70779 34949 ft 408 kts 245°
2026-04-29 12:33 30.16975 -9.76735 34945 ft 408 kts 245°
2026-04-29 12:33 30.14601 -9.82693 34947 ft 408 kts 245°
2026-04-29 12:34 30.12223 -9.88653 34961 ft 408 kts 245°
2026-04-29 12:34 30.09844 -9.94607 34949 ft 408 kts 245°
2026-04-29 12:35 30.07462 -10.00558 34964 ft 408 kts 245°
2026-04-29 12:35 30.05077 -10.06506 34964 ft 408 kts 245°
2026-04-29 12:36 30.02693 -10.12444 34959 ft 408 kts 245°
2026-04-29 12:36 30.00308 -10.18375 34956 ft 407 kts 245°
2026-04-29 12:37 29.98272 -10.23429 34957 ft 406 kts 246°
2026-04-29 12:37 29.95894 -10.29324 34957 ft 405 kts 246°
2026-04-29 12:38 29.93521 -10.35198 34960 ft 403 kts 246°
2026-04-29 12:38 29.91151 -10.41054 34968 ft 402 kts 246°
2026-04-29 12:39 29.88788 -10.46885 34974 ft 401 kts 246°
2026-04-29 12:39 29.86427 -10.52702 34972 ft 400 kts 246°
2026-04-29 12:40 29.84189 -10.58209 34977 ft 400 kts 246°
2026-04-29 12:40 29.81828 -10.64008 34977 ft 399 kts 246°
2026-04-29 12:41 29.79469 -10.69793 34978 ft 399 kts 246°
2026-04-29 12:41 29.77107 -10.75577 34977 ft 399 kts 246°
2026-04-29 12:42 29.75024 -10.80670 34977 ft 399 kts 246°
2026-04-29 12:42 29.72657 -10.86450 34978 ft 400 kts 246°
2026-04-29 12:43 29.70283 -10.92237 34981 ft 400 kts 246°
2026-04-29 12:43 29.67923 -10.97982 34979 ft 400 kts 246°
2026-04-29 12:44 29.65539 -11.03776 34981 ft 401 kts 246°
2026-04-29 12:44 29.63153 -11.09566 34976 ft 401 kts 246°
2026-04-29 12:45 29.60765 -11.15353 34981 ft 401 kts 246°
2026-04-29 12:45 29.58374 -11.21137 34985 ft 401 kts 246°
2026-04-29 12:46 29.55982 -11.26916 34984 ft 400 kts 246°
2026-04-29 12:46 29.53588 -11.32688 34987 ft 400 kts 246°
2026-04-29 12:47 29.51613 -11.37446 34989 ft 400 kts 246°
2026-04-29 12:47 29.49219 -11.43204 34988 ft 400 kts 246°
2026-04-29 12:48 29.46824 -11.48957 34989 ft 399 kts 245°
2026-04-29 12:48 29.44429 -11.54702 34989 ft 399 kts 245°
2026-04-29 12:49 29.42034 -11.60436 34989 ft 399 kts 245°
2026-04-29 12:49 29.39635 -11.66171 34989 ft 398 kts 245°
2026-04-29 12:50 29.37237 -11.71898 34990 ft 398 kts 245°
2026-04-29 12:50 29.34874 -11.77530 34994 ft 398 kts 245°
2026-04-29 12:51 29.32472 -11.83249 34994 ft 398 kts 245°
2026-04-29 12:51 29.30081 -11.88930 34996 ft 398 kts 245°
2026-04-29 12:52 29.27963 -11.93958 34984 ft 398 kts 245°
2026-04-29 12:52 29.25555 -11.99665 34991 ft 398 kts 245°
2026-04-29 12:53 29.23147 -12.05364 34998 ft 398 kts 245°
2026-04-29 12:53 29.20737 -12.11061 34996 ft 398 kts 245°
2026-04-29 12:54 29.18321 -12.16762 34999 ft 398 kts 245°
2026-04-29 12:54 29.15903 -12.22460 35002 ft 398 kts 244°
2026-04-29 12:55 29.13480 -12.28162 35000 ft 399 kts 244°
2026-04-29 12:55 29.11054 -12.33862 35001 ft 399 kts 244°
2026-04-29 12:56 29.08623 -12.39564 35002 ft 399 kts 244°
2026-04-29 12:56 29.06203 -12.45233 35000 ft 400 kts 244°
2026-04-29 12:57 29.04058 -12.50251 35004 ft 400 kts 244°
2026-04-29 12:57 29.01614 -12.55963 35002 ft 400 kts 244°
2026-04-29 12:58 28.99165 -12.61675 35001 ft 401 kts 244°
2026-04-29 12:58 28.96710 -12.67396 35007 ft 401 kts 244°
2026-04-29 12:59 28.94252 -12.73114 35007 ft 401 kts 244°
2026-04-29 12:59 28.91789 -12.78838 34991 ft 402 kts 244°
2026-04-29 13:00 28.89274 -12.84524 35001 ft 401 kts 242°
2026-04-29 13:00 28.86559 -12.90092 35011 ft 402 kts 240°
2026-04-29 13:01 28.83818 -12.95645 35009 ft 402 kts 241°
2026-04-29 13:01 28.81091 -13.01211 35004 ft 402 kts 241°
2026-04-29 13:02 28.78741 -13.06032 35007 ft 402 kts 241°
2026-04-29 13:02 28.76025 -13.11608 35008 ft 403 kts 241°
2026-04-29 13:03 28.73301 -13.17196 35013 ft 403 kts 240°
2026-04-29 13:03 28.71034 -13.21839 35007 ft 403 kts 240°
2026-04-29 13:04 28.68306 -13.27422 35007 ft 403 kts 240°
2026-04-29 13:04 28.65576 -13.32998 35008 ft 403 kts 240°
2026-04-29 13:05 28.62847 -13.38568 35009 ft 403 kts 240°
2026-04-29 13:05 28.60113 -13.44137 35008 ft 403 kts 240°
2026-04-29 13:06 28.57381 -13.49698 35016 ft 402 kts 240°
2026-04-29 13:06 28.54669 -13.55210 35015 ft 402 kts 240°
2026-04-29 13:07 28.52269 -13.60079 35009 ft 401 kts 240°
2026-04-29 13:07 28.49561 -13.65569 35021 ft 400 kts 240°
2026-04-29 13:08 28.46837 -13.71083 35014 ft 400 kts 240°
2026-04-29 13:08 28.44114 -13.76587 35023 ft 399 kts 240°
2026-04-29 13:09 28.41394 -13.82080 35025 ft 398 kts 240°
2026-04-29 13:09 28.38676 -13.87559 35030 ft 398 kts 240°
2026-04-29 13:10 28.35962 -13.93025 35019 ft 397 kts 240°
2026-04-29 13:10 28.33249 -13.98480 35017 ft 397 kts 240°
2026-04-29 13:11 28.30537 -14.03928 35016 ft 396 kts 240°
2026-04-29 13:11 28.27822 -14.09374 35005 ft 396 kts 240°
2026-04-29 13:12 28.25469 -14.14087 35005 ft 396 kts 240°
2026-04-29 13:12 28.22752 -14.19524 35011 ft 396 kts 240°
2026-04-29 13:13 28.20034 -14.24955 34998 ft 396 kts 240°
2026-04-29 13:13 28.17312 -14.30388 35008 ft 396 kts 240°
2026-04-29 13:14 28.14595 -14.35804 35003 ft 395 kts 240°
2026-04-29 13:14 28.11881 -14.41206 35013 ft 394 kts 240°
2026-04-29 13:15 28.09170 -14.46597 35017 ft 394 kts 240°
2026-04-29 13:15 28.06458 -14.51983 35005 ft 394 kts 240°
2026-04-29 13:16 28.03749 -14.57357 35015 ft 393 kts 240°
2026-04-29 13:16 28.01043 -14.62729 35018 ft 392 kts 242°
2026-04-29 13:17 27.99299 -14.67712 34994 ft 381 kts 254°
2026-04-29 13:17 27.98694 -14.70586 34816 ft 373 kts 254°
2026-04-29 13:17 27.98103 -14.73398 34669 ft 363 kts 254°
2026-04-29 13:17 27.97517 -14.76165 34302 ft 360 kts 254°
2026-04-29 13:18 27.96932 -14.78903 33983 ft 357 kts 254°
2026-04-29 13:18 27.96348 -14.81620 33577 ft 354 kts 254°
2026-04-29 13:18 27.95772 -14.84285 33091 ft 355 kts 254°
2026-04-29 13:18 27.95184 -14.86995 32669 ft 353 kts 254°
2026-04-29 13:19 27.94600 -14.89686 32270 ft 352 kts 254°
2026-04-29 13:19 27.94019 -14.92360 31906 ft 349 kts 254°
2026-04-29 13:19 27.93440 -14.95021 31554 ft 347 kts 254°
2026-04-29 13:19 27.92864 -14.97666 31195 ft 345 kts 253°
2026-04-29 13:20 27.92291 -15.00293 30846 ft 343 kts 253°
2026-04-29 13:20 27.91720 -15.02909 30502 ft 342 kts 253°